Hutchinson, MN

4:40 AM CST on November 25, 2017 (GMT -0600)
Hutchinson Municipal-Butler

Weather History for KHCD - February, 2013

Change the Weather History Date:

Saturday, February 23, 2013

  Actual Average Record
Temperature  
Mean Temperature 11 °F -  
Max Temperature 21 °F 32 °F 55 °F (2002)
Min Temperature 1 °F 13 °F -14 °F (2001)
Degree Days  
Heating Degree Days 54    
Moisture  
Dew Point 13 °F    
Average Humidity 92    
Maximum Humidity 100    
Minimum Humidity 85    
Precipitation  
Precipitation 0.00 in - - ()
Sea Level Pressure  
Sea Level Pressure 29.87 in    
Wind  
Wind Speed 7 mph (West)    
Max Wind Speed 13 mph    
Max Gust Speed -    
Visibility 5 miles    
Events      
Averages and records for this station are not official NWS values.
T = Trace of Precipitation, MM = Missing Value Source: NWS Daily Summary

Daily Weather History Graph

Daily Weather History Graph

Search for Another Location

Airport or City:

Trip Planner

Search our weather history database for the weather conditions in past years. The results will help you decide how hot, cold, wet, or windy it might be!

Date:

Astronomy

Feb. 23, 2013 Rise Set
Actual Time 7:04 AM CST 5:57 PM CST
Civil Twilight 6:35 AM CST 6:26 PM CST
Nautical Twilight 6:01 AM CST 7:00 PM CST
Astronomical Twilight 5:27 AM CST 7:34 PM CST
Moon 4:05 PM CST (2/23) 5:31 AM CST (2/23)
Length of Visible Light 11h 51m
Length of Day
10h 52m
Waxing Gibbous, 95% of the Moon is Illuminated
Feb 23
Waxing Gibbous
Feb 25
Full
Mar 4
Last Quarter
Mar 11
New
Mar 19
First Quarter

Hourly Weather History & Observations

Time (CST) Temp. Windchill Dew Point Humidity Pressure Visibility Wind Dir Wind Speed Gust Speed Precip Events Conditions
12:14 AM 19.2 °F 10.2 °F 17.6 °F 93% 29.87 in - West 6.9 mph - N/A   Unknown
12:34 AM 19.0 °F 8.2 °F 17.4 °F 93% 29.86 in - West 9.2 mph - N/A   Overcast
12:54 AM 17.6 °F 7.3 °F 16.2 °F 94% 29.86 in - West 8.1 mph - N/A   Overcast
1:14 AM 19.2 °F 11.3 °F 17.6 °F 93% 29.86 in - West 5.8 mph - N/A   Unknown
1:34 AM 17.2 °F 7.8 °F 15.8 °F 94% 29.85 in - West 6.9 mph - N/A   Unknown
1:54 AM 17.2 °F 5.2 °F 15.8 °F 94% 29.85 in - West 10.4 mph - N/A   Overcast
2:14 AM 17.2 °F 5.2 °F 15.8 °F 94% 29.85 in - West 10.4 mph - N/A   Unknown
2:34 AM 19.2 °F 8.4 °F 17.6 °F 93% 29.85 in - West 9.2 mph - N/A   Unknown
2:54 AM 19.2 °F 7.0 °F 17.6 °F 93% 29.85 in - West 11.5 mph - N/A   Overcast
3:14 AM 19.2 °F 6.4 °F 17.8 °F 94% 29.84 in - West 12.7 mph - N/A   Overcast
3:34 AM 19.2 °F 8.4 °F 18.0 °F 95% 29.84 in - West 9.2 mph - N/A   Unknown
3:54 AM 19.2 °F 8.4 °F 18.0 °F 95% 29.84 in - West 9.2 mph - N/A   Overcast
4:13 AM 19.2 °F 7.0 °F 17.6 °F 93% 29.84 in - West 11.5 mph - N/A   Overcast
4:34 AM 19.2 °F 8.4 °F 17.6 °F 93% 29.84 in - West 9.2 mph - N/A   Unknown
4:54 AM 19.2 °F 7.7 °F 17.6 °F 93% 29.84 in - WNW 10.4 mph - N/A   Unknown
5:14 AM 19.2 °F 8.4 °F 17.6 °F 93% 29.84 in - West 9.2 mph - N/A   Overcast
5:34 AM 17.1 °F 7.6 °F 15.8 °F 95% 29.84 in - West 6.9 mph - N/A   Mostly Cloudy
5:54 AM 14.2 °F 4.1 °F 12.9 °F 95% 29.85 in - West 6.9 mph - N/A   Unknown
6:13 AM 16.2 °F 5.5 °F 14.9 °F 95% 29.85 in - West 8.1 mph - N/A   Overcast
6:34 AM 16.7 °F 7.2 °F 15.4 °F 95% 29.85 in - West 6.9 mph - N/A   Overcast
6:54 AM 16.3 °F 7.8 °F 15.1 °F 95% 29.85 in - West 5.8 mph - N/A   Unknown
7:14 AM 15.4 °F 5.6 °F 14.0 °F 94% 29.84 in - WSW 6.9 mph - N/A   Unknown
7:34 AM 15.4 °F 6.8 °F 14.0 °F 94% 29.84 in - WNW 5.8 mph - N/A   Unknown
7:53 AM 15.4 °F 5.6 °F 14.0 °F 94% 29.84 in - West 6.9 mph - N/A   Overcast
8:14 AM 14.0 °F 3.9 °F 12.6 °F 94% 29.85 in - West 6.9 mph - N/A   Unknown
8:34 AM 14.0 °F 5.1 °F 12.2 °F 93% 29.85 in - West 5.8 mph - N/A   Overcast
8:41 AM 14.0 °F 3.9 °F 12.2 °F 93% 29.85 in - West 6.9 mph - N/A   Overcast
9:14 AM 14.0 °F 2.9 °F 12.2 °F 93% 29.86 in - WSW 8.1 mph - N/A   Overcast
9:33 AM 14.0 °F 2.9 °F 12.2 °F 93% 29.86 in - WSW 8.1 mph - N/A   Overcast
9:54 AM 14.4 °F 3.3 °F 12.4 °F 92% 29.86 in - WSW 8.1 mph - N/A   Overcast
10:14 AM 16.7 °F 8.3 °F 14.7 °F 92% 29.86 in - WSW 5.8 mph - N/A   Overcast
10:34 AM 16.7 °F 8.3 °F 14.0 °F 89% 29.86 in - West 5.8 mph - N/A   Mostly Cloudy
10:54 AM 16.7 °F 7.2 °F 14.0 °F 89% 29.86 in 10.0 mi West 6.9 mph - N/A   Scattered Clouds
11:14 AM 16.7 °F 9.6 °F 13.6 °F 88% 29.86 in 10.0 mi West 4.6 mph - N/A   Clear
11:34 AM 19.0 °F 11.1 °F 15.6 °F 87% 29.86 in 10.0 mi SW 5.8 mph - N/A   Clear
11:54 AM 19.2 °F 11.3 °F 15.4 °F 85% 29.87 in 10.0 mi WSW 5.8 mph - N/A   Clear
12:14 PM 19.2 °F 12.5 °F 15.4 °F 85% 29.86 in 10.0 mi West 4.6 mph - N/A   Clear
12:34 PM 19.9 °F 13.4 °F 16.3 °F 86% 29.86 in 10.0 mi WNW 4.6 mph - N/A   Clear
12:49 PM 20.3 °F - 16.7 °F 86% 29.86 in 10.0 mi Calm Calm - N/A   Clear
1:14 PM 21.2 °F 13.6 °F 17.6 °F 86% 29.86 in 10.0 mi WSW 5.8 mph - N/A   Clear
1:21 PM 21.7 °F 12.3 °F 18.1 °F 86% 29.86 in 10.0 mi West 8.1 mph - N/A   Clear
2:35 PM 19.4 °F 10.4 °F 17.6 °F 93% 29.86 in 1.8 mi WSW 6.9 mph - N/A   Overcast
2:55 PM 19.4 °F 10.4 °F 19.4 °F 100% 29.86 in 2.0 mi West 6.9 mph - N/A   Overcast
3:15 PM 19.4 °F 9.5 °F 17.6 °F 93% 29.86 in 0.8 mi West 8.1 mph - N/A   Overcast
3:20 PM 19.2 °F 10.2 °F 18.5 °F 97% 29.86 in 0.8 mi West 6.9 mph - N/A   Overcast
3:33 PM 19.2 °F 11.3 °F 18.5 °F 97% 29.86 in 0.5 mi West 5.8 mph - N/A   Overcast
3:55 PM 19.4 °F 11.5 °F 17.6 °F 93% 29.86 in 0.5 mi West 5.8 mph - N/A   Overcast
4:15 PM 19.4 °F 11.5 °F 17.6 °F 93% 29.86 in 0.2 mi West 5.8 mph - N/A   Overcast
4:35 PM 19.4 °F - 17.6 °F 93% 29.86 in 0.2 mi Calm Calm - N/A   Overcast
4:55 PM 19.4 °F 11.5 °F 17.6 °F 93% 29.86 in 0.2 mi West 5.8 mph - N/A   Overcast
5:15 PM 19.4 °F 11.5 °F 17.6 °F 93% 29.87 in 0.2 mi West 5.8 mph - N/A   Overcast
5:35 PM 17.6 °F 10.7 °F 17.6 °F 100% 29.87 in 0.2 mi WNW 4.6 mph - N/A   Overcast
5:55 PM 17.6 °F 10.7 °F 15.8 °F 93% 29.87 in 0.2 mi WNW 4.6 mph - N/A   Overcast
6:15 PM 17.6 °F - 15.8 °F 93% 29.88 in - Calm Calm - N/A   Overcast
6:35 PM 15.8 °F - 15.8 °F 100% 29.88 in - Calm Calm - N/A   Overcast
6:55 PM 15.8 °F - 15.8 °F 100% 29.88 in - Calm Calm - N/A   Overcast
7:15 PM 14.0 °F - 12.2 °F 93% 29.88 in - Calm Calm - N/A   Overcast
7:35 PM 14.0 °F - 12.2 °F 93% 29.89 in - Calm Calm - N/A   Overcast
7:55 PM 12.2 °F - 10.4 °F 92% 29.89 in - Calm Calm - N/A   Overcast
8:15 PM 12.2 °F - 10.4 °F 92% 29.90 in - Calm Calm - N/A   Overcast
8:35 PM 8.6 °F - 6.8 °F 92% 29.90 in - Calm Calm - N/A   Overcast
8:55 PM 8.6 °F - 6.8 °F 92% 29.90 in - Calm Calm - N/A   Overcast
9:40 PM 3.2 °F - 1.4 °F 92% 29.92 in - Calm Calm - N/A   Unknown
9:55 PM 3.2 °F - -0.4 °F 85% 29.92 in - Calm Calm - N/A   Unknown
10:15 PM 3.2 °F - 1.4 °F 92% 29.93 in - Calm Calm - N/A   Unknown
10:23 PM 2.1 °F - -0.4 °F 89% 29.93 in - Calm Calm - N/A   Unknown
10:34 PM 1.4 °F - -1.3 °F 88% 29.94 in - Calm Calm - N/A   Mostly Cloudy
10:54 PM 1.8 °F - -0.8 °F 89% 29.93 in - Calm Calm - N/A   Overcast
11:14 PM 3.7 °F - 1.6 °F 91% 29.93 in - Calm Calm - N/A   Overcast
11:34 PM 3.4 °F - 0.9 °F 89% 29.93 in - Calm Calm - N/A   Overcast
11:54 PM 1.4 °F - -1.3 °F 88% 29.93 in - Calm Calm - N/A   Overcast